User: anonymous   Login
Location: The Jewett Observatory
(46.7288°N, 117.1525°W)
Time: 05:29:52
(UTC-07:00)
Language:

Cosmos 1844 Rocket - Orbit

View from above orbital plane
View from above orbital plane
View from above satellite
View from above satellite

Ground track
Ground track

The orbit data is extracted from the following two-line orbital elements,

1 17974U 87041B   18173.55038409 -.00000207 +00000-0 -78658-4 0  9991
2 17974 071.0068 209.5209 0014501 197.2865 314.4623 14.17242221609158
Epoch (UTC): 22 June 2018 13:12:33
Eccentricity: 0.0014501
inclination: 71.0068°
perigee height: 824 km
apogee height: 845 km
right ascension of ascending node: 209.5209°
argument of perigee: 197.2865°
revolutions per day: 14.17242221
mean anomaly at epoch: 314.4623°
orbit number at epoch: 60915

The dashed part of the orbit path shows where the satellite is in the earth's shadow,  

DLR